Powrót do katalogu

PEGASUS DEB

AktywnyPO
NORAD 24340·DEBRIS·🇺🇸 United States

Wystrzelony May 19, 1994 z Vandenberg Space Force Base

Loading…

Następne Przeloty (najbliższe 24 godziny)

TLE

ŚwieżeSource: Space-Track

Epoka: Sep 14, 2026, 07:45 UTC

1 24340U 94029NR  26257.32322780  .00000539  00000-0  22496-3 0  9999
2 24340  81.5934 228.7059 0827051 266.3792  84.2493 13.16675251537266

Śledź PEGASUS DEB w czasie rzeczywistym z AllMySat

Download on the App Store